QPF
0.02 0.01 0.01 0.02 0.02 0.01 0.01 0.01 0.01 0.03 0.03 0.03 0.05 0.05 0.04 0.04 0.06 0.08 0.08 0.08 0.08 0.07 0.05 0.03 0.02 0.02 0.01 0.01 0.01 0.00 0.00 0.00 0.00 0.00 0.01 0.01 0.01 0.00 0.00 0.00 0.00 0.00 0.00 0.00
0.01 0.02 0.01 0.01 0.02 0.02 0.03 0.03 0.04 0.04 0.05 0.06 0.07 0.06 0.06 0.05 0.06 0.07 0.09 0.10 0.09 0.08 0.07 0.04 0.03 0.02 0.01 0.01 0.00 0.00 0.00 0.00 0.00 0.00 0.00 0.00 0.00 0.00 0.00 0.00 0.00 0.00 0.00 0.00
0.01 0.01 0.01 0.01 0.02 0.03 0.04 0.05 0.07 0.07 0.06 0.07 0.07 0.08 0.09 0.08 0.09 0.09 0.09 0.10 0.10 0.10 0.08 0.05 0.04 0.02 0.01 0.01 0.00 0.00 0.00 0.00 0.00 0.00 0.00 0.00 0.00 0.00 0.00 0.00 0.00 0.00 0.00 0.00
0.01 0.01 0.01 0.02 0.03 0.03 0.03 0.02 0.03 0.04 0.06 0.09 0.11 0.11 0.11 0.12 0.12 0.12 0.12 0.13 0.13 0.11 0.08 0.05 0.03 0.02 0.01 0.01 0.00 0.00 0.00 0.00 0.00 0.00 0.00 0.00 0.00 0.00 0.00 0.00 0.00 0.00 0.00 0.00
0.00 0.00 0.00 0.01 0.02 0.03 0.03 0.01 0.01 0.03 0.05 0.07 0.08 0.10 0.14 0.15 0.17 0.18 0.18 0.16 0.14 0.10 0.06 0.03 0.02 0.01 0.01 0.00 0.00 0.00 0.00 0.00 0.00 0.00 0.00 0.00 0.00 0.00 0.00 0.00 0.00 0.00 0.00 0.00
0.00 0.00 0.00 0.00 0.00 0.01 0.02 0.02 0.03 0.04 0.05 0.05 0.07 0.10 0.12 0.12 0.12 0.14 0.13 0.11 0.08 0.05 0.03 0.02 0.01 0.00 0.00 0.00 0.00 0.00 0.00 0.00 0.00 0.00 0.00 0.00 0.00 0.00 0.00 0.00 0.00 0.00 0.00 0.00
0.00 0.00 0.00 0.00 0.00 0.01 0.01 0.02 0.06 0.07 0.06 0.06 0.06 0.07 0.07 0.07 0.07 0.08 0.07 0.06 0.04 0.02 0.01 0.00 0.00 0.00 0.00 0.00 0.00 0.00 0.00 0.00 0.00 0.00 0.00 0.00 0.00 0.00 0.00 0.00 0.00 0.00 0.00 0.00
0.00 0.00 0.00 0.00 0.00 0.01 0.01 0.01 0.04 0.07 0.08 0.09 0.09 0.08 0.07 0.07 0.08 0.07 0.05 0.03 0.02 0.01 0.00 0.00 0.00 0.00 0.00 0.00 0.00 0.00 0.00 0.00 0.00 0.00 0.00 0.00 0.00 0.00 0.00 0.00 0.00 0.00 0.00 0.00
0.00 0.00 0.00 0.00 0.00 0.01 0.01 0.01 0.02 0.03 0.04 0.08 0.09 0.07 0.06 0.05 0.05 0.05 0.04 0.02 0.01 0.00 0.00 0.00 0.00 0.00 0.00 0.00 0.00 0.00 0.00 0.00 0.00 0.00 0.00 0.00 0.00 0.00 0.00 0.00 0.00 0.00 0.00 0.00
0.00 0.00 0.00 0.00 0.01 0.01 0.01 0.02 0.01 0.01 0.02 0.03 0.05 0.04 0.03 0.02 0.02 0.02 0.02 0.01 0.00 0.00 0.00 0.00 0.00 0.00 0.00 0.00 0.00 0.00 0.00 0.00 0.00 0.00 0.00 0.00 0.00 0.00 0.00 0.00 0.00 0.00 0.00 0.00
0.00 0.00 0.00 0.00 0.01 0.01 0.00 0.00 0.01 0.01 0.02 0.01 0.01 0.02 0.02 0.01 0.01 0.01 0.00 0.00 0.00 0.00 0.00 0.00 0.00 0.00 0.00 0.00 0.00 0.00 0.00 0.00 0.00 0.00 0.00 0.00 0.00 0.00 0.00 0.00 0.00 0.00 0.00 0.00
0.00 0.00 0.00 0.00 0.00 0.00 0.00 0.00 0.00 0.00 0.00 0.00 0.00 0.00 0.01 0.00 0.00 0.00 0.00 0.00 0.00 0.00 0.00 0.00 0.00 0.00 0.00 0.00 0.00 0.00 0.00 0.00 0.00 0.00 0.00 0.00 0.00 0.00 0.00 0.00 0.00 0.00 0.00 0.00
0.00 0.00 0.00 0.00 0.00 0.00 0.00 0.00 0.00 0.00 0.00 0.00 0.00 0.00 0.00 0.00 0.00 0.00 0.00 0.00 0.00 0.00 0.00 0.00 0.00 0.00 0.00 0.00 0.00 0.00 0.00 0.00 0.00 0.00 0.00 0.00 0.00 0.00 0.00 0.00 0.00 0.00 0.00 0.00
0.00 0.00 0.00 0.00 0.00 0.00 0.00 0.00 0.00 0.00 0.00 0.00 0.00 0.00 0.00 0.00 0.00 0.00 0.00 0.00 0.00 0.00 0.00 0.00 0.00 0.00 0.00 0.00 0.00 0.00 0.00 0.00 0.00 0.00 0.00 0.00 0.00 0.00 0.00 0.00 0.00 0.00 0.00 0.00
0.00 0.00 0.00 0.00 0.00 0.00 0.00 0.00 0.00 0.00 0.00 0.00 0.00 0.00 0.00 0.00 0.00 0.00 0.00 0.00 0.00 0.00 0.00 0.00 0.00 0.00 0.00 0.00 0.00 0.00 0.00 0.00 0.00 0.00 0.00 0.00 0.00 0.00 0.00 0.00 0.00 0.00 0.00 0.00
0.00 0.00 0.00 0.00 0.00 0.00 0.00 0.00 0.00 0.00 0.00 0.00 0.00 0.00 0.00 0.00 0.00 0.00 0.00 0.00 0.00 0.00 0.00 0.00 0.00 0.00 0.00 0.00 0.00 0.00 0.00 0.00 0.00 0.00 0.00 0.00 0.00 0.00 0.00 0.00 0.00 0.00 0.00 0.00
0.00 0.00 0.00 0.00 0.00 0.00 0.00 0.00 0.00 0.00 0.00 0.00 0.00 0.00 0.00 0.00 0.00 0.00 0.00 0.00 0.00 0.00 0.00 0.00 0.00 0.00 0.00 0.00 0.00 0.00 0.00 0.00 0.00 0.00 0.00 0.00 0.00 0.00 0.00 0.00 0.00 0.00 0.00 0.00
0.00 0.00 0.00 0.00 0.00 0.00 0.00 0.00 0.00 0.00 0.00 0.00 0.00 0.00 0.00 0.00 0.00 0.00 0.00 0.00 0.00 0.00 0.00 0.00 0.00 0.00 0.00 0.00 0.00 0.00 0.00 0.00 0.00 0.00 0.00 0.00 0.00 0.00 0.00 0.00 0.00 0.00 0.00 0.00
0.00 0.00 0.00 0.00 0.00 0.00 0.00 0.00 0.00 0.00 0.00 0.00 0.00 0.00 0.00 0.00 0.00 0.00 0.00 0.00 0.00 0.00 0.00 0.00 0.00 0.00 0.00 0.00 0.00 0.00 0.00 0.00 0.00 0.00 0.00 0.00 0.00 0.00 0.00 0.00 0.00 0.00 0.00 0.00
0.00 0.00 0.00 0.00 0.00 0.00 0.00 0.00 0.00 0.00 0.00 0.00 0.00 0.00 0.00 0.00 0.00 0.00 0.00 0.00 0.00 0.00 0.00 0.00 0.00 0.00 0.00 0.00 0.00 0.00 0.00 0.00 0.00 0.00 0.00 0.00 0.00 0.00 0.00 0.00 0.00 0.00 0.00 0.00
0.00 0.00 0.00 0.00 0.00 0.00 0.00 0.00 0.00 0.00 0.00 0.00 0.00 0.00 0.00 0.00 0.00 0.00 0.00 0.00 0.00 0.00 0.00 0.00 0.00 0.00 0.00 0.00 0.00 0.00 0.00 0.00 0.00 0.00 0.00 0.00 0.00 0.00 0.00 0.00 0.00 0.00 0.00 0.00
0.00 0.00 0.00 0.00 0.00 0.00 0.00 0.00 0.00 0.00 0.00 0.00 0.00 0.00 0.00 0.00 0.00 0.00 0.00 0.00 0.00 0.00 0.00 0.00 0.00 0.00 0.00 0.00 0.00 0.00 0.00 0.00 0.00 0.00 0.00 0.00 0.00 0.00 0.00 0.00 0.00 0.00 0.00 0.00
0.00 0.00 0.00 0.00 0.00 0.00 0.00 0.00 0.00 0.00 0.00 0.00 0.00 0.00 0.00 0.00 0.00 0.00 0.00 0.00 0.00 0.00 0.00 0.00 0.00 0.00 0.00 0.00 0.00 0.00 0.00 0.00 0.00 0.00 0.00 0.00 0.00 0.00 0.00 0.00 0.00 0.00 0.00 0.00
0.00 0.00 0.00 0.00 0.00 0.00 0.00 0.00 0.00 0.00 0.00 0.00 0.00 0.00 0.00 0.00 0.00 0.00 0.00 0.00 0.00 0.00 0.00 0.00 0.00 0.00 0.00 0.00 0.00 0.00 0.00 0.00 0.00 0.00 0.00 0.00 0.00 0.00 0.00 0.00 0.00 0.00 0.00 0.00
0.00 0.00 0.00 0.00 0.00 0.00 0.00 0.00 0.00 0.00 0.00 0.00 0.00 0.00 0.00 0.00 0.00 0.00 0.00 0.00 0.00 0.00 0.00 0.00 0.00 0.00 0.00 0.00 0.00 0.00 0.00 0.00 0.00 0.00 0.00 0.00 0.00 0.00 0.00 0.00 0.00 0.00 0.00 0.00
0.00 0.00 0.00 0.00 0.00 0.00 0.00 0.00 0.00 0.00 0.00 0.00 0.00 0.00 0.00 0.00 0.00 0.00 0.00 0.00 0.00 0.00 0.00 0.00 0.00 0.00 0.00 0.00 0.00 0.00 0.00 0.00 0.00 0.00 0.00 0.00 0.00 0.00 0.00 0.00 0.00 0.00 0.00 0.00
0.00 0.00 0.00 0.00 0.00 0.00 0.00 0.00 0.00 0.00 0.00 0.00 0.00 0.00 0.00 0.00 0.00 0.00 0.00 0.00 0.00 0.00 0.00 0.00 0.00 0.00 0.00 0.00 0.00 0.00 0.00 0.00 0.00 0.00 0.00 0.00 0.00 0.00 0.00 0.00 0.00 0.00 0.00 0.00
MSLP
1013.52 1013.89 1014.24 1014.56 1014.84 1015.09 1015.32 1015.53 1015.74 1015.97 1016.24 1016.56 1016.94 1017.39 1017.91 1018.50 1019.14 1019.82 1020.52 1021.23 1021.92 1022.58 1023.20 1023.76 1024.25 1024.69 1025.05 1025.34 1025.58 1025.75 1025.87 1025.95 1025.99 1026.00 1026.01 1026.00 1026.00 1026.00 1026.01 1026.04 1026.07 1026.11 1026.14 1026.17
1014.32 1014.68 1014.97 1015.20 1015.36 1015.47 1015.56 1015.65 1015.78 1015.96 1016.22 1016.57 1017.02 1017.55 1018.15 1018.81 1019.51 1020.23 1020.96 1021.66 1022.35 1022.99 1023.60 1024.15 1024.65 1025.10 1025.48 1025.80 1026.05 1026.23 1026.36 1026.44 1026.48 1026.48 1026.47 1026.44 1026.42 1026.40 1026.39 1026.38 1026.38 1026.37 1026.36 1026.34
1015.09 1015.41 1015.64 1015.77 1015.82 1015.82 1015.80 1015.80 1015.87 1016.02 1016.29 1016.68 1017.18 1017.78 1018.46 1019.18 1019.93 1020.67 1021.40 1022.10 1022.77 1023.39 1023.97 1024.51 1025.00 1025.44 1025.82 1026.15 1026.40 1026.60 1026.73 1026.80 1026.83 1026.83 1026.80 1026.77 1026.73 1026.70 1026.67 1026.65 1026.62 1026.58 1026.54 1026.48
1015.77 1016.04 1016.19 1016.25 1016.21 1016.12 1016.03 1015.99 1016.03 1016.19 1016.48 1016.91 1017.47 1018.13 1018.87 1019.64 1020.42 1021.18 1021.91 1022.59 1023.23 1023.83 1024.38 1024.89 1025.35 1025.78 1026.15 1026.46 1026.70 1026.88 1027.00 1027.07 1027.08 1027.07 1027.04 1027.00 1026.96 1026.92 1026.89 1026.85 1026.81 1026.77 1026.70 1026.61
1016.33 1016.53 1016.62 1016.61 1016.52 1016.39 1016.28 1016.22 1016.28 1016.46 1016.80 1017.29 1017.91 1018.63 1019.41 1020.21 1021.01 1021.78 1022.50 1023.16 1023.77 1024.33 1024.84 1025.32 1025.75 1026.14 1026.48 1026.76 1026.97 1027.13 1027.22 1027.26 1027.26 1027.23 1027.19 1027.15 1027.11 1027.08 1027.05 1027.03 1026.99 1026.94 1026.86 1026.76
1016.76 1016.89 1016.93 1016.87 1016.76 1016.63 1016.54 1016.52 1016.62 1016.86 1017.27 1017.81 1018.49 1019.26 1020.08 1020.91 1021.71 1022.47 1023.17 1023.81 1024.38 1024.90 1025.37 1025.79 1026.18 1026.52 1026.81 1027.04 1027.22 1027.33 1027.39 1027.40 1027.38 1027.33 1027.29 1027.25 1027.22 1027.20 1027.19 1027.18 1027.16 1027.12 1027.05 1026.94
1017.04 1017.12 1017.12 1017.06 1016.96 1016.87 1016.83 1016.88 1017.06 1017.38 1017.86 1018.48 1019.21 1020.01 1020.85 1021.69 1022.49 1023.23 1023.91 1024.50 1025.03 1025.49 1025.91 1026.28 1026.60 1026.89 1027.12 1027.30 1027.42 1027.49 1027.50 1027.48 1027.44 1027.38 1027.33 1027.30 1027.29 1027.29 1027.31 1027.32 1027.33 1027.30 1027.24 1027.13
1017.18 1017.23 1017.23 1017.20 1017.15 1017.13 1017.17 1017.32 1017.59 1018.01 1018.56 1019.24 1020.01 1020.84 1021.69 1022.52 1023.30 1024.00 1024.63 1025.18 1025.65 1026.06 1026.41 1026.71 1026.97 1027.19 1027.36 1027.48 1027.55 1027.57 1027.55 1027.50 1027.44 1027.39 1027.34 1027.32 1027.33 1027.36 1027.41 1027.45 1027.48 1027.47 1027.42 1027.31
1017.20 1017.26 1017.28 1017.30 1017.33 1017.41 1017.57 1017.82 1018.20 1018.70 1019.33 1020.05 1020.85 1021.69 1022.53 1023.33 1024.06 1024.72 1025.29 1025.77 1026.17 1026.51 1026.80 1027.04 1027.23 1027.38 1027.49 1027.56 1027.58 1027.57 1027.52 1027.46 1027.40 1027.34 1027.31 1027.32 1027.35 1027.41 1027.48 1027.55 1027.60 1027.61 1027.56 1027.45
1017.14 1017.22 1017.30 1017.40 1017.54 1017.73 1018.00 1018.36 1018.84 1019.42 1020.11 1020.87 1021.68 1022.50 1023.30 1024.05 1024.73 1025.32 1025.81 1026.22 1026.56 1026.82 1027.04 1027.21 1027.34 1027.44 1027.50 1027.52 1027.51 1027.48 1027.42 1027.36 1027.30 1027.26 1027.26 1027.29 1027.35 1027.43 1027.53 1027.61 1027.68 1027.69 1027.65 1027.53
1017.01 1017.15 1017.32 1017.52 1017.76 1018.07 1018.45 1018.92 1019.49 1020.14 1020.86 1021.64 1022.43 1023.22 1023.97 1024.65 1025.25 1025.76 1026.18 1026.51 1026.77 1026.96 1027.11 1027.22 1027.30 1027.35 1027.38 1027.38 1027.35 1027.32 1027.27 1027.22 1027.18 1027.17 1027.19 1027.24 1027.32 1027.43 1027.54 1027.63 1027.70 1027.72 1027.67 1027.54
1016.87 1017.09 1017.35 1017.65 1018.01 1018.43 1018.92 1019.48 1020.11 1020.80 1021.55 1022.31 1023.08 1023.81 1024.49 1025.10 1025.62 1026.05 1026.38 1026.63 1026.82 1026.95 1027.04 1027.10 1027.14 1027.16 1027.17 1027.16 1027.14 1027.12 1027.09 1027.07 1027.07 1027.08 1027.13 1027.20 1027.30 1027.41 1027.53 1027.62 1027.68 1027.69 1027.63 1027.50
1016.74 1017.05 1017.41 1017.81 1018.28 1018.80 1019.38 1020.01 1020.69 1021.40 1022.14 1022.88 1023.60 1024.28 1024.89 1025.41 1025.85 1026.20 1026.46 1026.64 1026.76 1026.84 1026.88 1026.90 1026.92 1026.92 1026.93 1026.93 1026.93 1026.93 1026.93 1026.95 1026.97 1027.02 1027.09 1027.18 1027.29 1027.40 1027.51 1027.60 1027.65 1027.64 1027.58 1027.44
1016.65 1017.05 1017.51 1018.01 1018.57 1019.17 1019.81 1020.49 1021.20 1021.92 1022.64 1023.34 1024.01 1024.62 1025.16 1025.62 1025.99 1026.27 1026.46 1026.59 1026.66 1026.69 1026.70 1026.70 1026.70 1026.70 1026.71 1026.73 1026.75 1026.78 1026.81 1026.86 1026.92 1026.99 1027.08 1027.18 1027.29 1027.40 1027.50 1027.57 1027.61 1027.60 1027.53 1027.40
1016.62 1017.10 1017.65 1018.24 1018.87 1019.53 1020.22 1020.92 1021.64 1022.34 1023.04 1023.70 1024.32 1024.87 1025.35 1025.75 1026.06 1026.29 1026.44 1026.53 1026.57 1026.57 1026.56 1026.55 1026.54 1026.54 1026.56 1026.59 1026.63 1026.68 1026.75 1026.82 1026.90 1027.00 1027.10 1027.21 1027.31 1027.42 1027.51 1027.57 1027.60 1027.59 1027.53 1027.42
1016.64 1017.21 1017.82 1018.48 1019.17 1019.87 1020.58 1021.29 1021.99 1022.68 1023.34 1023.96 1024.53 1025.04 1025.47 1025.83 1026.10 1026.30 1026.43 1026.49 1026.52 1026.51 1026.49 1026.47 1026.45 1026.45 1026.47 1026.51 1026.56 1026.63 1026.72 1026.81 1026.91 1027.01 1027.12 1027.23 1027.34 1027.44 1027.53 1027.59 1027.63 1027.62 1027.58 1027.49
1016.71 1017.34 1018.02 1018.73 1019.46 1020.18 1020.89 1021.59 1022.28 1022.93 1023.55 1024.13 1024.66 1025.13 1025.54 1025.87 1026.13 1026.32 1026.44 1026.50 1026.52 1026.51 1026.49 1026.46 1026.44 1026.43 1026.45 1026.48 1026.54 1026.61 1026.70 1026.80 1026.90 1027.02 1027.13 1027.25 1027.36 1027.47 1027.56 1027.63 1027.68 1027.69 1027.68 1027.62
1016.80 1017.50 1018.23 1018.97 1019.72 1020.44 1021.15 1021.83 1022.48 1023.09 1023.68 1024.22 1024.72 1025.17 1025.56 1025.88 1026.14 1026.33 1026.46 1026.53 1026.56 1026.55 1026.53 1026.50 1026.47 1026.45 1026.46 1026.48 1026.53 1026.59 1026.67 1026.77 1026.88 1026.99 1027.12 1027.24 1027.36 1027.48 1027.58 1027.68 1027.74 1027.79 1027.80 1027.78
1016.92 1017.66 1018.43 1019.20 1019.94 1020.66 1021.34 1021.99 1022.60 1023.18 1023.73 1024.24 1024.72 1025.15 1025.53 1025.85 1026.12 1026.32 1026.47 1026.55 1026.59 1026.60 1026.57 1026.54 1026.51 1026.48 1026.46 1026.47 1026.50 1026.55 1026.62 1026.71 1026.82 1026.94 1027.07 1027.20 1027.34 1027.48 1027.60 1027.72 1027.82 1027.89 1027.94 1027.96
1017.04 1017.83 1018.62 1019.39 1020.13 1020.83 1021.48 1022.09 1022.66 1023.20 1023.71 1024.20 1024.65 1025.07 1025.45 1025.78 1026.06 1026.28 1026.44 1026.55 1026.60 1026.61 1026.60 1026.56 1026.52 1026.48 1026.45 1026.44 1026.45 1026.48 1026.55 1026.63 1026.74 1026.87 1027.01 1027.16 1027.32 1027.48 1027.63 1027.77 1027.89 1028.00 1028.07 1028.12
1017.18 1018.00 1018.80 1019.57 1020.29 1020.96 1021.58 1022.15 1022.68 1023.18 1023.66 1024.12 1024.55 1024.95 1025.33 1025.66 1025.95 1026.18 1026.36 1026.49 1026.56 1026.58 1026.57 1026.54 1026.49 1026.45 1026.41 1026.39 1026.39 1026.42 1026.48 1026.57 1026.68 1026.81 1026.97 1027.14 1027.31 1027.49 1027.67 1027.83 1027.98 1028.10 1028.20 1028.25
1017.33 1018.16 1018.97 1019.73 1020.43 1021.07 1021.65 1022.19 1022.68 1023.15 1023.59 1024.02 1024.42 1024.81 1025.18 1025.51 1025.80 1026.05 1026.24 1026.37 1026.46 1026.49 1026.50 1026.47 1026.43 1026.39 1026.36 1026.34 1026.35 1026.38 1026.45 1026.54 1026.67 1026.81 1026.98 1027.17 1027.36 1027.55 1027.74 1027.92 1028.08 1028.21 1028.32 1028.38
1017.49 1018.33 1019.13 1019.88 1020.56 1021.17 1021.72 1022.22 1022.68 1023.11 1023.52 1023.92 1024.30 1024.68 1025.02 1025.35 1025.63 1025.87 1026.07 1026.21 1026.31 1026.36 1026.38 1026.37 1026.35 1026.33 1026.32 1026.32 1026.34 1026.40 1026.48 1026.59 1026.73 1026.89 1027.08 1027.27 1027.47 1027.67 1027.86 1028.04 1028.20 1028.34 1028.44 1028.50
1017.65 1018.48 1019.27 1020.00 1020.66 1021.24 1021.77 1022.24 1022.68 1023.08 1023.47 1023.84 1024.20 1024.54 1024.87 1025.18 1025.45 1025.68 1025.88 1026.02 1026.13 1026.20 1026.24 1026.26 1026.27 1026.28 1026.29 1026.33 1026.39 1026.47 1026.58 1026.72 1026.88 1027.05 1027.24 1027.44 1027.64 1027.84 1028.02 1028.19 1028.34 1028.47 1028.56 1028.62
1017.77 1018.60 1019.37 1020.08 1020.71 1021.28 1021.79 1022.24 1022.66 1023.04 1023.41 1023.76 1024.10 1024.42 1024.73 1025.01 1025.26 1025.48 1025.67 1025.82 1025.93 1026.02 1026.08 1026.13 1026.18 1026.23 1026.29 1026.37 1026.47 1026.59 1026.74 1026.90 1027.07 1027.26 1027.45 1027.65 1027.84 1028.02 1028.19 1028.34 1028.48 1028.59 1028.68 1028.73
1017.84 1018.64 1019.39 1020.07 1020.69 1021.24 1021.74 1022.19 1022.60 1022.98 1023.33 1023.67 1023.99 1024.29 1024.57 1024.83 1025.06 1025.27 1025.44 1025.59 1025.71 1025.81 1025.91 1025.99 1026.08 1026.18 1026.29 1026.42 1026.56 1026.72 1026.90 1027.08 1027.27 1027.46 1027.65 1027.84 1028.01 1028.17 1028.32 1028.45 1028.57 1028.67 1028.75 1028.82
1017.80 1018.57 1019.28 1019.94 1020.55 1021.09 1021.59 1022.04 1022.45 1022.83 1023.19 1023.52 1023.83 1024.12 1024.38 1024.62 1024.84 1025.03 1025.19 1025.34 1025.47 1025.59 1025.71 1025.83 1025.96 1026.11 1026.26 1026.44 1026.62 1026.82 1027.01 1027.22 1027.41 1027.60 1027.78 1027.94 1028.09 1028.23 1028.36 1028.48 1028.58 1028.68 1028.77 1028.84
Thickness
5621 5627 5628 5626 5627 5632 5631 5629 5625 5627 5627 5628 5625 5620 5614 5608 5602 5596 5591 5587 5582 5577 5572 5570 5567 5564 5562 5559 5556 5554 5551 5547 5543 5540 5537 5534 5530 5526 5521 5516 5511 5506 5501 5496
5617 5623 5624 5620 5620 5624 5625 5626 5626 5624 5620 5623 5617 5611 5604 5599 5594 5588 5582 5577 5571 5566 5561 5557 5554 5551 5547 5544 5541 5539 5536 5532 5529 5526 5523 5518 5514 5510 5506 5501 5496 5491 5486 5480
5607 5617 5619 5606 5608 5611 5613 5616 5617 5614 5614 5613 5607 5602 5596 5590 5585 5579 5572 5566 5560 5555 5549 5545 5541 5537 5534 5531 5528 5526 5522 5519 5515 5512 5509 5505 5501 5496 5491 5486 5481 5476 5471 5465
5600 5608 5597 5601 5610 5609 5606 5606 5608 5608 5606 5604 5599 5591 5585 5580 5574 5568 5562 5555 5548 5542 5536 5532 5528 5525 5522 5519 5517 5513 5509 5506 5504 5500 5497 5492 5488 5483 5478 5473 5468 5463 5457 5451
5592 5592 5595 5603 5606 5604 5600 5596 5599 5598 5595 5589 5584 5579 5569 5565 5563 5557 5550 5544 5537 5531 5526 5521 5518 5514 5512 5508 5505 5502 5498 5496 5493 5489 5485 5481 5477 5472 5467 5461 5456 5451 5445 5439
5591 5590 5588 5595 5603 5605 5598 5590 5591 5590 5585 5581 5579 5571 5560 5553 5549 5543 5538 5532 5526 5520 5515 5511 5507 5504 5501 5497 5494 5491 5489 5486 5482 5479 5475 5471 5467 5462 5456 5451 5446 5441 5435 5429
5587 5586 5588 5597 5600 5602 5588 5584 5584 5582 5577 5572 5567 5561 5551 5543 5537 5532 5526 5521 5516 5511 5506 5502 5498 5495 5491 5488 5485 5483 5480 5477 5474 5471 5467 5463 5458 5453 5448 5443 5438 5432 5426 5421
5582 5581 5584 5594 5595 5588 5583 5580 5577 5571 5566 5559 5554 5547 5540 5533 5527 5521 5515 5510 5506 5502 5497 5493 5490 5487 5483 5480 5478 5475 5472 5469 5466 5463 5460 5457 5451 5446 5441 5436 5431 5425 5419 5415
5584 5581 5584 5584 5584 5581 5578 5573 5568 5561 5555 5551 5544 5536 5529 5522 5516 5511 5506 5501 5497 5493 5488 5485 5482 5479 5476 5474 5471 5468 5465 5462 5459 5457 5453 5450 5446 5441 5435 5430 5425 5419 5414 5410
5586 5586 5584 5581 5578 5574 5571 5566 5560 5554 5549 5543 5535 5527 5520 5513 5507 5502 5497 5493 5489 5486 5482 5478 5476 5473 5471 5468 5465 5462 5459 5456 5453 5450 5447 5444 5440 5436 5431 5426 5421 5416 5412 5408
5585 5585 5581 5577 5572 5566 5561 5557 5551 5545 5539 5534 5527 5519 5512 5506 5500 5495 5491 5486 5483 5479 5476 5473 5471 5468 5465 5462 5459 5456 5454 5451 5447 5445 5442 5439 5436 5431 5428 5423 5418 5414 5410 5406
5588 5587 5580 5573 5566 5561 5556 5549 5544 5538 5529 5524 5519 5512 5505 5499 5494 5490 5485 5481 5478 5475 5472 5469 5466 5463 5461 5458 5455 5452 5449 5446 5443 5441 5438 5435 5432 5428 5424 5421 5417 5413 5409 5406
5595 5587 5578 5570 5563 5557 5550 5543 5538 5532 5524 5516 5511 5506 5500 5493 5488 5485 5482 5478 5475 5472 5469 5465 5462 5459 5457 5454 5451 5448 5445 5443 5440 5438 5435 5432 5429 5425 5422 5418 5415 5413 5410 5407
5591 5585 5573 5567 5558 5552 5546 5538 5531 5524 5518 5513 5506 5501 5496 5490 5486 5482 5479 5476 5473 5469 5465 5462 5459 5457 5454 5452 5449 5446 5443 5441 5438 5435 5432 5429 5426 5423 5419 5416 5413 5411 5410 5408
5589 5585 5574 5563 5554 5547 5540 5534 5526 5518 5512 5506 5502 5497 5493 5488 5484 5480 5477 5474 5470 5466 5463 5460 5458 5455 5453 5450 5448 5445 5442 5439 5435 5432 5429 5426 5424 5421 5418 5415 5412 5410 5409 5409
5582 5576 5570 5561 5552 5543 5536 5530 5523 5515 5510 5504 5499 5495 5491 5487 5482 5478 5475 5472 5468 5465 5461 5458 5456 5454 5452 5449 5447 5443 5440 5438 5434 5431 5427 5424 5422 5419 5417 5414 5411 5410 5409 5408
5581 5571 5564 5556 5549 5541 5534 5528 5522 5515 5509 5503 5498 5493 5489 5484 5480 5477 5474 5470 5467 5464 5460 5457 5455 5454 5451 5449 5445 5442 5439 5436 5434 5430 5426 5424 5421 5418 5416 5413 5411 5410 5409 5408
5590 5581 5571 5562 5552 5542 5533 5527 5521 5515 5508 5503 5498 5492 5488 5484 5480 5477 5473 5470 5467 5464 5461 5458 5456 5453 5451 5448 5445 5441 5438 5435 5432 5429 5425 5423 5420 5417 5415 5413 5411 5410 5409 5408
5584 5575 5566 5559 5551 5542 5534 5526 5520 5514 5509 5503 5498 5492 5488 5485 5481 5477 5473 5470 5467 5464 5461 5459 5456 5453 5450 5448 5445 5441 5438 5435 5431 5428 5425 5422 5419 5417 5414 5413 5411 5410 5409 5409
5580 5573 5564 5556 5548 5541 5533 5526 5520 5514 5508 5503 5498 5493 5489 5486 5482 5478 5474 5470 5467 5464 5462 5459 5456 5453 5451 5448 5445 5442 5438 5435 5432 5428 5425 5422 5419 5416 5414 5412 5411 5410 5409 5409
5579 5571 5563 5555 5547 5540 5533 5527 5520 5514 5508 5504 5499 5495 5491 5487 5483 5479 5475 5472 5470 5466 5463 5461 5457 5454 5451 5449 5446 5442 5439 5435 5431 5428 5424 5421 5418 5416 5414 5412 5411 5410 5409 5409
5577 5569 5562 5554 5546 5538 5532 5526 5521 5515 5509 5505 5501 5497 5492 5488 5484 5480 5477 5474 5472 5469 5465 5462 5459 5457 5454 5451 5447 5443 5439 5435 5431 5428 5424 5421 5418 5416 5414 5412 5411 5410 5409 5408
5576 5568 5561 5553 5546 5538 5531 5525 5521 5516 5511 5507 5503 5498 5494 5490 5486 5483 5480 5478 5475 5472 5468 5465 5462 5459 5456 5452 5449 5445 5441 5437 5433 5430 5426 5423 5420 5417 5415 5413 5412 5410 5410 5409
5573 5566 5558 5551 5544 5536 5529 5525 5520 5517 5513 5509 5505 5501 5497 5492 5489 5486 5484 5482 5478 5475 5471 5468 5465 5462 5458 5454 5450 5447 5443 5440 5436 5432 5428 5425 5422 5419 5417 5415 5413 5412 5411 5410
5571 5564 5556 5549 5543 5537 5531 5525 5519 5515 5512 5508 5506 5503 5500 5497 5494 5491 5487 5485 5482 5478 5474 5471 5468 5465 5461 5457 5453 5450 5446 5442 5439 5435 5432 5428 5425 5422 5420 5417 5416 5414 5413 5412
5567 5562 5556 5550 5545 5537 5531 5525 5519 5514 5511 5508 5506 5504 5501 5499 5496 5493 5490 5488 5485 5481 5478 5474 5471 5468 5464 5460 5457 5453 5450 5446 5442 5439 5435 5432 5429 5426 5423 5421 5419 5417 5416 5414
5564 5558 5551 5545 5540 5536 5531 5526 5521 5516 5513 5510 5508 5506 5503 5501 5498 5496 5493 5491 5488 5485 5481 5478 5475 5471 5468 5464 5461 5457 5454 5450 5446 5443 5439 5436 5433 5430 5428 5426 5423 5421 5419 5418